This is the latest recevied weather packets stored in our database for station/object K7NDG. If no packets are shown the sender has not sent any weather packets the latest 10 day(s).
| Time | Temp. | Humidity | Pressure | Rain* | Wind** | Luminosity | Snow |
|---|---|---|---|---|---|---|---|
| 1777405472 | 11.67° C | 74% | 1024.8 hPa | 0 mm | - | 171 W/m² | - |
| 1777405170 | 11.67° C | 74% | 1024.5 hPa | 0 mm | - | 164 W/m² | - |
| 1777404867 | 11.67° C | 74% | 1024.7 hPa | 0 mm | - | 164 W/m² | - |
| 1777404565 | 11.67° C | 75% | 1024.5 hPa | 0 mm | - | 154 W/m² | - |
| 1777404261 | 11.67° C | 75% | 1024.4 hPa | 0 mm | - | 137 W/m² | - |
| 1777403956 | 11.67° C | 74% | 1024.5 hPa | 0 mm | - | 138 W/m² | - |
| 1777403655 | 12.22° C | 74% | 1024.2 hPa | 0 mm | - | 142 W/m² | - |
| 1777403350 | 12.22° C | 73% | 1024.4 hPa | 0 mm | - | 154 W/m² | - |
| 1777403044 | 12.22° C | 75% | 1024.3 hPa | 0 mm | - | 190 W/m² | - |
| 1777402740 | 11.67° C | 75% | 1024.3 hPa | 0 mm | - | 165 W/m² | - |
| 1777402436 | 11.67° C | 75% | 1024 hPa | 0 mm | - | 175 W/m² | - |
| 1777402134 | 11.67° C | 76% | 1024.2 hPa | 0 mm | - | 158 W/m² | - |
| 1777401830 | 11.67° C | 76% | 1024.2 hPa | 0 mm | - | 137 W/m² | - |
| 1777401529 | 11.67° C | 76% | 1024.2 hPa | 0 mm | - | 142 W/m² | - |
| 1777401224 | 11.67° C | 77% | 1024.2 hPa | 0 mm | - | 153 W/m² | - |
| 1777400920 | 11.67° C | 78% | 1024.1 hPa | 0 mm | - | 152 W/m² | - |
| 1777400616 | 11.67° C | 79% | 1024.2 hPa | 0 mm | - | 139 W/m² | - |
| 1777400315 | 11.67° C | 79% | 1024.1 hPa | 0 mm | - | 141 W/m² | - |
| 1777400010 | 11.11° C | 80% | 1024 hPa | 0 mm | - | 114 W/m² | - |
| 1777399708 | 11.11° C | 80% | 1024.1 hPa | 0 mm | - | 122 W/m² | - |
| 1777399404 | 11.11° C | 80% | 1024 hPa | 0 mm | - | 116 W/m² | - |
| 1777399101 | 11.11° C | 81% | 1024.2 hPa | 0 mm | - | 102 W/m² | - |
| 1777398799 | 11.11° C | 81% | 1023.8 hPa | 0 mm | - | 94 W/m² | - |
| 1777398496 | 11.11° C | 82% | 1024 hPa | 0 mm | - | 91 W/m² | - |
| 1777398192 | 11.11° C | 82% | 1024.1 hPa | 0 mm | - | 97 W/m² | - |
* Rain latest hour (hover to see other rain measurements)
** Current wind speed in m/s (hover to see current wind gust speed)